Home > Weather > Recife > Past weeks

Flag for Brazil Weather for the Past 2 Weeks in Recife, Pernambuco, Brazil

Now
75 °F

Scattered showers. Passing clouds.


Feels Like: 74 °F
Forecast: 77 / 83 °F
Wind: 2 mph from South

Location: Recife Aeroporto

Current Time: May 6, 2016 at 4:30:44 AM

Latest Report: May 6, 2016 at 3:00 AM


Visibility: N/A

Pressure: 29.92 "Hg

Humidity: 94%

Dew Point: 73 °F

Location of RecifeLocation

Historic Weather in Recife — Graph

°F

Recife Temperature Yesterday

Maximum temperature yesterday: 86 °F (at 2:00 PM)
Minimum temperature yesterday: 73 °F (at 2:00 AM)
Average temperature yesterday: 79 °F

High & Low Weather Summary for the Past Weeks

 TemperatureHumidityPressure
High88 °F (Apr 21, 12:00 PM)100% (May 1, 5:00 PM)30.01 "Hg (May 1, 5:00 PM)
Low73 °F (May 5, 2:00 AM)59% (Apr 26, 12:00 PM)29.80 "Hg (Apr 25, 3:00 PM)
Average82 °F77%29.91 "Hg
* Reported Apr 21 3:00 AM — May 6 3:00 AM, Recife, Weather by CustomWeather, © 2016

Note: Actual official high and low records may vary slightly from our data, if they occured in-between our weather recording intervals... More about our weather records

Advertising

Recife Weather History for the Previous 24 Hours

Scroll right to see more
 ConditionsComfort  
Time TempWeatherWind HumidityBarometerVisibility
3:00 AM
Fri, May 6
75 °FScattered showers. Passing clouds.2 mph94%29.92 "HgN/A
2:00 AM77 °FPassing clouds.5 mph89%29.92 "HgN/A
1:00 AM77 °FPassing clouds.5 mph89%29.95 "HgN/A
12:00 AM77 °FPassing clouds.6 mph89%29.98 "HgN/A
11:00 PM
Thu, May 5
79 °FPassing clouds.5 mph84%29.98 "HgN/A
10:00 PM79 °FPassing clouds.6 mph84%30.01 "HgN/A
9:00 PM79 °FPassing clouds.6 mph84%30.01 "HgN/A
8:00 PM79 °FPassing clouds.7 mph84%29.98 "HgN/A
7:00 PM79 °FPassing clouds.6 mph84%29.98 "HgN/A
6:00 PM79 °FPassing clouds.10 mph84%29.98 "HgN/A
5:00 PM79 °FScattered clouds.18 mph84%29.95 "HgN/A
4:00 PM82 °FScattered clouds.12 mph79%29.92 "HgN/A
3:00 PM84 °FScattered clouds.17 mph70%29.92 "HgN/A
2:00 PM86 °FScattered clouds.15 mph70%29.92 "HgN/A
1:00 PM84 °FPassing clouds.15 mph70%29.95 "HgN/A
12:00 PM82 °FPartly sunny.12 mph74%29.98 "HgN/A
11:00 AM84 °FBroken clouds.13 mph62%29.98 "HgN/A
10:00 AM82 °FPartly sunny.9 mph74%30.01 "HgN/A
9:00 AM82 °FPartly sunny.8 mph74%30.01 "HgN/A
8:00 AM79 °FPassing clouds.8 mph84%29.98 "HgN/A
7:00 AM75 °FPartly sunny.6 mph94%29.98 "HgN/A
6:00 AM73 °FLight rain. Partly sunny.6 mph94%29.95 "Hg4 mi
5:00 AM73 °FLight rain. Partly cloudy.6 mph94%29.92 "Hg4 mi
4:00 AM75 °FPassing clouds.2 mph89%29.92 "HgN/A
Weather by CustomWeather, © 2016

See weather overviewHow to use our weather pages